Regional Weather Roundup
Issued by NWS

Home | Current Version | Previous Version | Text Only | Print | Product List | Glossary Off
Versions: 1 2 3 4 5 6 7 8 9 10 11 12 13 14 15 16 17 18 19 20 21 22 23 24 25 26 27 28 29 30 31 32 33 34 35 36 37 38 39 40 41 42 43 44 45 46 47 48 49 50

000
ASUS43 KLOT 240000
RWRIL

ILLINOIS REGIONAL WEATHER ROUNDUP
NATIONAL WEATHER SERVICE CHICAGO/ROMEOVILLE IL
700 PM CDT THU OCT 23 2014

NOTE: "FAIR" INDICATES FEW OR NO CLOUDS BELOW 12,000 FEET WITH NO
SIGNIFICANT WEATHER AND/OR OBSTRUCTIONS TO VISIBILITY.

* THESE STATIONS ARE NOT UNDER NWS QUALITY CONTROL. THEY ALSO MAY NOT
  REPORT WEATHER SUCH AS PRECIPITATION OR FOG.

ILZ001-002-007-009-015-016-024-240100-
NORTHWEST ILLINOIS

CITY           SKY/WX    TMP DP  RH WIND       PRES   REMARKS
MOLINE         CLOUDY    59  47  64 S3        30.04S
6HR MIN TEMP:  58; 6HR MAX TEMP:  61;

STERLING*      CLOUDY    54  46  76 CALM      30.06S
$$

ILZ003-004-008-010-011-017-018-240100-
NORTH CENTRAL ILLINOIS

CITY           SKY/WX    TMP DP  RH WIND       PRES   REMARKS
ROCKFORD       LGT RAIN  52  47  83 S6        30.09R
6HR MIN TEMP:  52; 6HR MAX TEMP:  61; 6HR PCP:  0.08;

$$

ILZ005-006-012>014-019>023-240100-
NORTHEAST ILLINOIS

CITY           SKY/WX    TMP DP  RH WIND       PRES   REMARKS
CHICAGO-OHARE  CLOUDY    54  42  64 S8        30.06S
6HR MIN TEMP:  53; 6HR MAX TEMP:  59;

CHICAGO-MIDWAY CLOUDY    58  40  51 S5        30.07R
6HR MIN TEMP:  58; 6HR MAX TEMP:  62;

AURORA         CLOUDY    56  43  61 S6        30.07S
6HR MIN TEMP:  56; 6HR MAX TEMP:  60;

WAUKEGAN       CLOUDY    54  42  64 SW6       30.07R
6HR MIN TEMP:  54; 6HR MAX TEMP:  60;

DUPAGE AIRPORT CLOUDY    54  43  66 S6        30.06S
6HR MIN TEMP:  54; 6HR MAX TEMP:  61;

WHEELING       CLOUDY    57  42  57 S6        30.08S
6HR MIN TEMP:  56; 6HR MAX TEMP:  62;

NORTHERLY ISL    N/A     57  39  51 S6          N/A
$$

LMZ740>746-240100-
SOUTHERN LAKE MICHIGAN

STATION/POSITION SKY/WX   TEMP    WIND        PRES    VSBY  WAVE
                          AIR SEA DIR/SP/G                  HT/PER
                          (F)     (DEG/KT/KT) (MB)    (MI)  (FT/S)
SOUTHERN BUOY              55 54  170/ 12/ 14 1018.6F         2/ 4
WAUKEGAN HARBOR            56     220/  5/  6   N/A
HARRISON CRIB              57     170/ 14/ 15   N/A
BURNHAM HARBOR             57     200/  8/ 11   N/A
CALUMET HARBOR             57     160/  4/  5 1017.2F
MICHIGAN CITY              56     160/  5/  7   N/A
$$

ILZ025>027-034>036-040-047-049-050-058-095>099-240100-
WEST-CENTRAL ILLINOIS

CITY           SKY/WX    TMP DP  RH WIND       PRES   REMARKS
QUINCY         CLOUDY    56  51  84 S7        30.06S
$$

ILZ028>032-037-038-041>044-048-051>054-059>061-240100-
CENTRAL ILLINOIS

CITY           SKY/WX    TMP DP  RH WIND       PRES   REMARKS
DECATUR        MOCLDY    55  43  63 S7        30.10S
PEORIA         CLOUDY    58  45  62 S7        30.07R
6HR MIN TEMP:  57; 6HR MAX TEMP:  62; 6HR PCP: TRACE;

SPRINGFIELD    MOCLDY    58  43  57 S7        30.08S
6HR MIN TEMP:  58; 6HR MAX TEMP:  63;

TAYLORVILLE    NOT AVBL
$$

ILZ033-039-045-046-055>057-062-063-240100-
EAST-CENTRAL ILLINOIS

CITY           SKY/WX    TMP DP  RH WIND       PRES   REMARKS
CHAMPAIGN      MOCLDY    51  41  68 MISG      30.11S
MATTOON        MOCLDY    52  45  77 CALM      30.11S
$$

ILZ079-100>102-240100-
SOUTHWEST ILLINOIS

CITY           SKY/WX    TMP DP  RH WIND       PRES   REMARKS
ALTON          MOCLDY    57  45  62 SE6       30.10S
BELLEVILLE     CLOUDY    56  46  69 E3        30.11S
CAHOKIA*       CLOUDY    59  45  59 S5        30.11R
$$

ILZ064>066-069>071-074>076-080>082-084>086-088>090-092>094-240100-
SOUTH-CENTRAL ILLINOIS

CITY           SKY/WX    TMP DP  RH WIND       PRES   REMARKS
CARBONDALE     MOCLDY    51  43  74 CALM      30.14S
6HR MIN TEMP:  50; 6HR MAX TEMP:  62;

MT. VERNON     CLOUDY    52  45  76 CALM      30.14R
$$

ILZ067-068-072-073-078-083-087-091-240100-
SOUTHEAST ILLINOIS

CITY           SKY/WX    TMP DP  RH WIND       PRES   REMARKS
LAWRENCEVILLE  CLOUDY    53  45  74 S6        30.13F
$$

ABBREVIATIONS USED IN REMARKS
   TC - TEMPERATURE IN CELSIUS
  WCI - WIND CHILL INDEX
   HX - HEAT INDEX
  VSB - VISIBILITY
$$




USA.gov is the U.S. government's official web portal to all federal, state and local government web resources and services.